Wetterdaten: Donnerstag, 27.11.2014
Datum Zeit Temp. A. Feuchte A. Luftdruck Regen Wind Richtung Richtung Sonnenschein ET UV Solar Taupunkt Windchill Windben Empfang
27.11.2014 00:00 0,7 C 71 % 1015,4 hPa 0,0 l/m 9,4 km/h (2 Bft) O 82 0 min 0,000 mm 0,0 UV-I 0 W/m -3,9 C -2,2 C 11,9 km/h (2 Bft) 0,00 %
27.11.2014 00:15 0,7 C 71 % 1015,4 hPa 0,0 l/m 5,4 km/h (1 Bft) O-SO 103 0 min 0,000 mm 0,0 UV-I 0 W/m -3,9 C 0,7 C 7,9 km/h (2 Bft) 0,00 %
27.11.2014 00:30 0,7 C 71 % 1015,3 hPa 0,0 l/m 6,5 km/h (2 Bft) O-NO 74 0 min 0,000 mm 0,0 UV-I 0 W/m -3,9 C 0,6 C 7,9 km/h (2 Bft) 0,00 %
27.11.2014 00:45 0,7 C 71 % 1015,3 hPa 0,0 l/m 7,9 km/h (2 Bft) SO 140 0 min 0,000 mm 0,0 UV-I 0 W/m -3,9 C -0,8 C 11,9 km/h (2 Bft) 0,00 %
27.11.2014 01:00 0,8 C 71 % 1015,1 hPa 0,0 l/m 0,0 km/h (0 Bft) W-SW 256 0 min 0,000 mm 0,0 UV-I 0 W/m -3,8 C 0,8 C 0,0 km/h (0 Bft) 0,00 %
27.11.2014 01:15 0,8 C 71 % 1015,0 hPa 0,0 l/m 0,0 km/h (0 Bft) W-SW 256 0 min 0,000 mm 0,0 UV-I 0 W/m -3,8 C 0,8 C 0,0 km/h (0 Bft) 0,00 %
27.11.2014 01:30 0,9 C 71 % 1014,8 hPa 0,0 l/m 2,9 km/h (1 Bft) O 91 0 min 0,000 mm 0,0 UV-I 0 W/m -3,7 C 0,9 C 4,0 km/h (1 Bft) 0,00 %
27.11.2014 01:45 0,9 C 71 % 1014,9 hPa 0,0 l/m 4,7 km/h (1 Bft) O 89 0 min 0,000 mm 0,0 UV-I 0 W/m -3,7 C 0,9 C 7,9 km/h (2 Bft) 0,00 %
27.11.2014 02:00 0,8 C 71 % 1014,6 hPa 0,0 l/m 5,8 km/h (2 Bft) O-NO 76 0 min 0,000 mm 0,0 UV-I 0 W/m -3,8 C 0,8 C 11,9 km/h (2 Bft) 0,00 %
27.11.2014 02:15 0,6 C 71 % 1014,4 hPa 0,0 l/m 4,0 km/h (1 Bft) O 91 0 min 0,000 mm 0,0 UV-I 0 W/m -4,0 C 0,6 C 7,9 km/h (2 Bft) 0,00 %
27.11.2014 02:30 0,6 C 71 % 1014,3 hPa 0,0 l/m 7,2 km/h (2 Bft) O-SO 111 0 min 0,000 mm 0,0 UV-I 0 W/m -4,0 C -0,2 C 11,9 km/h (2 Bft) 0,00 %
27.11.2014 02:45 0,6 C 71 % 1014,4 hPa 0,0 l/m 7,2 km/h (2 Bft) O-SO 111 0 min 0,000 mm 0,0 UV-I 0 W/m -4,0 C -0,2 C 0,0 km/h (0 Bft) 0,00 %
27.11.2014 03:00 0,6 C 72 % 1014,0 hPa 0,0 l/m 9,7 km/h (2 Bft) O-SO 120 0 min 0,000 mm 0,0 UV-I 0 W/m -3,9 C -2,5 C 15,8 km/h (3 Bft) 0,00 %
27.11.2014 03:15 0,5 C 72 % 1013,9 hPa 0,0 l/m 4,3 km/h (1 Bft) O-SO 108 0 min 0,000 mm 0,0 UV-I 0 W/m -3,9 C 0,5 C 7,9 km/h (2 Bft) 0,00 %
27.11.2014 03:30 0,5 C 72 % 1013,8 hPa 0,0 l/m 4,0 km/h (1 Bft) O-NO 66 0 min 0,000 mm 0,0 UV-I 0 W/m -3,9 C 0,5 C 7,9 km/h (2 Bft) 0,00 %
27.11.2014 03:45 0,5 C 72 % 1013,6 hPa 0,0 l/m 0,4 km/h (0 Bft) O-SO 119 0 min 0,000 mm 0,0 UV-I 0 W/m -3,9 C 0,5 C 4,0 km/h (1 Bft) 0,00 %
27.11.2014 04:00 0,4 C 72 % 1013,4 hPa 0,0 l/m 12,2 km/h (2 Bft) S 173 0 min 0,000 mm 0,0 UV-I 0 W/m -4,0 C -4,7 C 15,8 km/h (3 Bft) 0,00 %
27.11.2014 04:15 0,4 C 74 % 1013,4 hPa 0,0 l/m 5,8 km/h (2 Bft) O-SO 112 0 min 0,000 mm 0,0 UV-I 0 W/m -3,7 C 0,4 C 7,9 km/h (2 Bft) 0,00 %
27.11.2014 04:30 0,5 C 73 % 1013,5 hPa 0,0 l/m 3,2 km/h (1 Bft) O 80 0 min 0,000 mm 0,0 UV-I 0 W/m -3,8 C 0,5 C 11,9 km/h (2 Bft) 0,00 %
27.11.2014 04:45 0,4 C 73 % 1013,4 hPa 0,0 l/m 7,2 km/h (2 Bft) SO 128 0 min 0,000 mm 0,0 UV-I 0 W/m -3,9 C -0,4 C 11,9 km/h (2 Bft) 0,00 %
27.11.2014 05:00 0,5 C 73 % 1013,1 hPa 0,0 l/m 4,0 km/h (1 Bft) O 80 0 min 0,000 mm 0,0 UV-I 0 W/m -3,8 C 0,5 C 7,9 km/h (2 Bft) 0,00 %
27.11.2014 05:15 0,5 C 73 % 1013,1 hPa 0,0 l/m 5,8 km/h (2 Bft) SO 135 0 min 0,000 mm 0,0 UV-I 0 W/m -3,8 C 0,5 C 7,9 km/h (2 Bft) 0,00 %
27.11.2014 05:30 0,5 C 73 % 1013,2 hPa 0,0 l/m 0,0 km/h (0 Bft) O-NO 61 0 min 0,000 mm 0,0 UV-I 0 W/m -3,8 C 0,5 C 0,0 km/h (0 Bft) 0,00 %
27.11.2014 05:45 0,5 C 74 % 1013,1 hPa 0,0 l/m 1,8 km/h (1 Bft) S 182 0 min 0,000 mm 0,0 UV-I 0 W/m -3,6 C 0,5 C 4,0 km/h (1 Bft) 0,00 %
27.11.2014 06:00 0,5 C 74 % 1013,1 hPa 0,0 l/m 7,9 km/h (2 Bft) O-SO 104 0 min 0,000 mm 0,0 UV-I 0 W/m -3,6 C -1,0 C 11,9 km/h (2 Bft) 0,00 %
27.11.2014 06:15 0,5 C 74 % 1012,9 hPa 0,0 l/m 7,2 km/h (2 Bft) O 94 0 min 0,000 mm 0,0 UV-I 0 W/m -3,6 C -0,3 C 11,9 km/h (2 Bft) 0,00 %
27.11.2014 06:30 0,4 C 75 % 1013,2 hPa 0,0 l/m 1,4 km/h (1 Bft) O-NO 74 0 min 0,000 mm 0,0 UV-I 0 W/m -3,5 C 0,4 C 4,0 km/h (1 Bft) 0,00 %
27.11.2014 06:45 0,3 C 76 % 1012,8 hPa 0,0 l/m 1,4 km/h (1 Bft) O-SO 106 0 min 0,000 mm 0,0 UV-I 0 W/m -3,4 C 0,3 C 4,0 km/h (1 Bft) 0,00 %
27.11.2014 07:00 0,1 C 77 % 1013,1 hPa 0,0 l/m 4,7 km/h (1 Bft) O-SO 106 0 min 0,000 mm 0,0 UV-I 0 W/m -3,4 C 0,1 C 7,9 km/h (2 Bft) 0,00 %
27.11.2014 07:15 0,1 C 77 % 1013,1 hPa 0,0 l/m 1,4 km/h (1 Bft) O-SO 110 0 min 0,000 mm 0,0 UV-I 0 W/m -3,4 C 0,1 C 4,0 km/h (1 Bft) 0,00 %
27.11.2014 07:30 0,1 C 77 % 1013,4 hPa 0,0 l/m 4,0 km/h (1 Bft) O 95 0 min 0,000 mm 0,0 UV-I 0 W/m -3,4 C 0,1 C 7,9 km/h (2 Bft) 0,00 %
27.11.2014 07:45 0,3 C 77 % 1013,0 hPa 0,0 l/m 0,7 km/h (0 Bft) S 173 15 min 0,000 mm 0,0 UV-I 17 W/m -3,2 C 0,3 C 4,0 km/h (1 Bft) 0,00 %
27.11.2014 08:00 0,3 C 77 % 1013,0 hPa 0,0 l/m 3,2 km/h (1 Bft) O-SO 117 0 min 0,000 mm 0,0 UV-I 33 W/m -3,2 C 0,3 C 7,9 km/h (2 Bft) 0,00 %
27.11.2014 08:15 0,4 C 76 % 1013,1 hPa 0,0 l/m 0,4 km/h (0 Bft) O-SO 120 0 min 0,000 mm 1,0 UV-I 44 W/m -3,3 C 0,4 C 4,0 km/h (1 Bft) 0,00 %
27.11.2014 08:30 0,7 C 75 % 1013,1 hPa 0,0 l/m 4,7 km/h (1 Bft) NO 52 0 min 0,000 mm 1,0 UV-I 55 W/m -3,2 C 0,7 C 7,9 km/h (2 Bft) 0,00 %
27.11.2014 08:45 0,8 C 75 % 1012,9 hPa 0,0 l/m 1,8 km/h (1 Bft) S 177 0 min 0,000 mm 1,0 UV-I 66 W/m -3,1 C 0,8 C 4,0 km/h (1 Bft) 0,00 %
27.11.2014 09:00 1,2 C 74 % 1013,0 hPa 0,0 l/m 4,3 km/h (1 Bft) O 83 0 min 0,000 mm 1,0 UV-I 77 W/m -2,9 C 1,2 C 7,9 km/h (2 Bft) 0,00 %
27.11.2014 09:15 1,5 C 72 % 1012,8 hPa 0,0 l/m 6,5 km/h (2 Bft) O-SO 105 0 min 0,000 mm 1,0 UV-I 88 W/m -3,0 C 1,4 C 11,9 km/h (2 Bft) 0,00 %
27.11.2014 09:30 1,6 C 72 % 1012,5 hPa 0,0 l/m 6,5 km/h (2 Bft) O 94 0 min 0,000 mm 1,0 UV-I 99 W/m -2,9 C 1,5 C 7,9 km/h (2 Bft) 0,00 %
27.11.2014 09:45 1,7 C 71 % 1012,6 hPa 0,0 l/m 14,8 km/h (3 Bft) SO 128 0 min 0,000 mm 1,0 UV-I 111 W/m -3,0 C -4,8 C 15,8 km/h (3 Bft) 0,00 %
27.11.2014 10:00 2,0 C 71 % 1012,5 hPa 0,0 l/m 5,4 km/h (1 Bft) O 91 0 min 0,000 mm 1,0 UV-I 111 W/m -2,7 C 2,0 C 11,9 km/h (2 Bft) 0,00 %
27.11.2014 10:15 2,1 C 71 % 1012,6 hPa 0,0 l/m 5,4 km/h (1 Bft) SO 129 0 min 0,000 mm 1,0 UV-I 122 W/m -2,6 C 2,1 C 7,9 km/h (2 Bft) 0,00 %
27.11.2014 10:30 2,2 C 70 % 1012,5 hPa 0,0 l/m 11,9 km/h (2 Bft) O-SO 113 0 min 0,000 mm 1,0 UV-I 133 W/m -2,7 C -2,4 C 15,8 km/h (3 Bft) 0,00 %
27.11.2014 10:45 2,3 C 70 % 1012,4 hPa 0,0 l/m 7,2 km/h (2 Bft) S-SO 149 0 min 0,000 mm 1,0 UV-I 133 W/m -2,6 C 1,5 C 11,9 km/h (2 Bft) 0,00 %
27.11.2014 11:00 2,3 C 70 % 1012,2 hPa 0,0 l/m 14,0 km/h (3 Bft) O-SO 108 0 min 0,000 mm 1,0 UV-I 144 W/m -2,6 C -3,6 C 15,8 km/h (3 Bft) 0,00 %
27.11.2014 11:15 2,5 C 74 % 1011,9 hPa 0,0 l/m 18,0 km/h (3 Bft) O 95 0 min 0,000 mm 2,0 UV-I 144 W/m -1,7 C -5,5 C 24,1 km/h (4 Bft) 0,00 %
27.11.2014 11:30 2,4 C 70 % 1011,8 hPa 0,0 l/m 13,3 km/h (3 Bft) SO 136 0 min 0,000 mm 1,0 UV-I 155 W/m -2,5 C -3,1 C 19,8 km/h (3 Bft) 0,00 %
27.11.2014 11:45 2,3 C 74 % 1011,7 hPa 0,0 l/m 14,0 km/h (3 Bft) S 183 0 min 0,000 mm 2,0 UV-I 166 W/m -1,8 C -3,6 C 19,8 km/h (3 Bft) 0,00 %
27.11.2014 12:00 2,4 C 69 % 1011,4 hPa 0,0 l/m 2,2 km/h (1 Bft) SW 218 0 min 0,000 mm 2,0 UV-I 177 W/m -2,7 C 2,4 C 7,9 km/h (2 Bft) 0,00 %
27.11.2014 12:15 2,4 C 69 % 1011,6 hPa 0,0 l/m 8,3 km/h (2 Bft) O-SO 111 0 min 0,000 mm 1,0 UV-I 188 W/m -2,7 C 0,6 C 11,9 km/h (2 Bft) 0,00 %
27.11.2014 12:30 2,5 C 73 % 1011,3 hPa 0,0 l/m 5,8 km/h (2 Bft) O 101 15 min 0,000 mm 1,0 UV-I 199 W/m -1,8 C 2,5 C 7,9 km/h (2 Bft) 0,00 %
27.11.2014 12:45 2,4 C 69 % 1011,3 hPa 0,0 l/m 6,5 km/h (2 Bft) O 96 15 min 0,000 mm 1,0 UV-I 222 W/m -2,7 C 2,3 C 11,9 km/h (2 Bft) 0,00 %
27.11.2014 13:00 2,5 C 73 % 1011,2 hPa 0,0 l/m 6,8 km/h (2 Bft) O-SO 115 15 min 0,000 mm 1,0 UV-I 211 W/m -1,8 C 2,1 C 11,9 km/h (2 Bft) 0,00 %
27.11.2014 13:15 2,6 C 73 % 1010,8 hPa 0,0 l/m 8,3 km/h (2 Bft) SO 124 15 min 0,000 mm 1,0 UV-I 222 W/m -1,7 C 0,8 C 11,9 km/h (2 Bft) 0,00 %
27.11.2014 13:30 2,7 C 72 % 1010,6 hPa 0,0 l/m 12,2 km/h (2 Bft) SO 132 15 min 0,000 mm 1,0 UV-I 423 W/m -1,8 C -2,0 C 15,8 km/h (3 Bft) 0,00 %
27.11.2014 13:45 2,7 C 72 % 1010,7 hPa 0,0 l/m 7,9 km/h (2 Bft) SO 129 15 min 0,000 mm 1,0 UV-I 367 W/m -1,8 C 1,3 C 15,8 km/h (3 Bft) 0,00 %
27.11.2014 14:00 2,8 C 72 % 1010,5 hPa 0,0 l/m 14,4 km/h (3 Bft) O-SO 108 15 min 0,000 mm 1,0 UV-I 314 W/m -1,7 C -3,3 C 15,8 km/h (3 Bft) 0,00 %
27.11.2014 14:15 2,7 C 72 % 1010,5 hPa 0,0 l/m 10,8 km/h (2 Bft) O-SO 115 15 min 0,000 mm 1,0 UV-I 283 W/m -1,8 C -1,1 C 28,1 km/h (4 Bft) 0,00 %
27.11.2014 14:30 2,7 C 72 % 1010,3 hPa 0,0 l/m 5,4 km/h (1 Bft) S 173 15 min 0,000 mm 1,0 UV-I 235 W/m -1,8 C 2,7 C 7,9 km/h (2 Bft) 0,00 %
27.11.2014 14:45 2,7 C 72 % 1010,5 hPa 0,0 l/m 16,9 km/h (3 Bft) O 94 15 min 0,000 mm 1,0 UV-I 190 W/m -1,8 C -4,7 C 19,8 km/h (3 Bft) 0,00 %
27.11.2014 15:00 2,6 C 72 % 1010,5 hPa 0,0 l/m 12,2 km/h (2 Bft) S 172 15 min 0,000 mm 1,0 UV-I 135 W/m -1,9 C -2,1 C 15,8 km/h (3 Bft) 0,00 %
27.11.2014 15:15 2,5 C 72 % 1010,9 hPa 0,0 l/m 4,7 km/h (1 Bft) O-SO 117 15 min 0,000 mm 0,0 UV-I 80 W/m -2,0 C 2,5 C 7,9 km/h (2 Bft) 0,00 %
27.11.2014 15:30 2,4 C 67 % 1011,0 hPa 0,0 l/m 11,9 km/h (2 Bft) O 91 0 min 0,000 mm 0,0 UV-I 29 W/m -3,1 C -2,2 C 15,8 km/h (3 Bft) 0,00 %
27.11.2014 15:45 2,2 C 67 % 1010,8 hPa 0,0 l/m 11,9 km/h (2 Bft) NO 53 0 min 0,000 mm 0,0 UV-I 0 W/m -3,3 C -2,4 C 15,8 km/h (3 Bft) 0,00 %
27.11.2014 16:00 2,0 C 68 % 1011,1 hPa 0,0 l/m 4,7 km/h (1 Bft) SO 142 0 min 0,000 mm 0,0 UV-I 0 W/m -3,3 C 2,0 C 11,9 km/h (2 Bft) 0,00 %
27.11.2014 16:15 1,9 C 68 % 1011,1 hPa 0,0 l/m 5,8 km/h (2 Bft) O 88 0 min 0,000 mm 0,0 UV-I 0 W/m -3,4 C 1,9 C 7,9 km/h (2 Bft) 0,00 %
27.11.2014 16:30 1,7 C 68 % 1011,3 hPa 0,0 l/m 10,4 km/h (2 Bft) O-SO 102 0 min 0,000 mm 0,0 UV-I 0 W/m -3,6 C -1,9 C 19,8 km/h (3 Bft) 0,00 %
27.11.2014 16:45 1,5 C 68 % 1011,4 hPa 0,0 l/m 9,7 km/h (2 Bft) O-SO 108 0 min 0,000 mm 0,0 UV-I 0 W/m -3,7 C -1,6 C 11,9 km/h (2 Bft) 0,00 %
27.11.2014 17:00 1,4 C 68 % 1011,4 hPa 0,0 l/m 15,5 km/h (3 Bft) O-NO 72 0 min 0,000 mm 0,0 UV-I 0 W/m -3,8 C -5,6 C 19,8 km/h (3 Bft) 0,00 %
27.11.2014 17:15 1,3 C 68 % 1011,3 hPa 0,0 l/m 22,3 km/h (4 Bft) O 80 0 min 0,000 mm 0,0 UV-I 0 W/m -3,9 C -8,9 C 32,0 km/h (5 Bft) 0,00 %
27.11.2014 17:30 1,2 C 69 % 1011,2 hPa 0,0 l/m 11,5 km/h (2 Bft) SO 125 0 min 0,000 mm 0,0 UV-I 0 W/m -3,8 C -3,3 C 19,8 km/h (3 Bft) 0,00 %
27.11.2014 17:45 1,0 C 69 % 1011,5 hPa 0,0 l/m 11,5 km/h (2 Bft) O 89 0 min 0,000 mm 0,0 UV-I 0 W/m -4,0 C -3,5 C 15,8 km/h (3 Bft) 0,00 %
27.11.2014 18:00 0,9 C 69 % 1011,7 hPa 0,0 l/m 2,2 km/h (1 Bft) N 354 0 min 0,000 mm 0,0 UV-I 0 W/m -4,1 C 0,9 C 4,0 km/h (1 Bft) 0,00 %
27.11.2014 18:15 0,8 C 69 % 1011,5 hPa 0,0 l/m 14,4 km/h (3 Bft) O 99 0 min 0,000 mm 0,0 UV-I 0 W/m -4,2 C -5,7 C 24,1 km/h (4 Bft) 0,00 %
27.11.2014 18:30 0,7 C 69 % 1011,5 hPa 0,0 l/m 19,1 km/h (3 Bft) O 98 0 min 0,000 mm 0,0 UV-I 0 W/m -4,3 C -8,3 C 24,1 km/h (4 Bft) 0,00 %
27.11.2014 18:45 0,6 C 69 % 1011,7 hPa 0,0 l/m 8,3 km/h (2 Bft) O 87 0 min 0,000 mm 0,0 UV-I 0 W/m -4,4 C -1,3 C 11,9 km/h (2 Bft) 0,00 %
27.11.2014 19:00 0,5 C 70 % 1011,6 hPa 0,0 l/m 9,4 km/h (2 Bft) O 91 0 min 0,000 mm 0,0 UV-I 0 W/m -4,3 C -2,4 C 11,9 km/h (2 Bft) 0,00 %
27.11.2014 19:15 0,5 C 70 % 1011,8 hPa 0,0 l/m 20,9 km/h (4 Bft) O 87 0 min 0,000 mm 0,0 UV-I 0 W/m -4,3 C -9,4 C 28,1 km/h (4 Bft) 0,00 %
27.11.2014 19:30 0,4 C 71 % 1011,8 hPa 0,0 l/m 14,0 km/h (3 Bft) O 94 0 min 0,000 mm 0,0 UV-I 0 W/m -4,2 C -5,9 C 19,8 km/h (3 Bft) 0,00 %
27.11.2014 19:45 0,4 C 70 % 1011,9 hPa 0,0 l/m 20,5 km/h (4 Bft) O-SO 117 0 min 0,000 mm 0,0 UV-I 0 W/m -4,4 C -9,3 C 28,1 km/h (4 Bft) 0,00 %
27.11.2014 20:00 0,4 C 71 % 1012,1 hPa 0,0 l/m 7,9 km/h (2 Bft) O-SO 106 0 min 0,000 mm 0,0 UV-I 0 W/m -4,2 C -1,1 C 11,9 km/h (2 Bft) 0,00 %
27.11.2014 20:15 0,4 C 72 % 1012,0 hPa 0,0 l/m 13,3 km/h (3 Bft) O 99 0 min 0,000 mm 0,0 UV-I 0 W/m -4,0 C -5,4 C 19,8 km/h (3 Bft) 0,00 %
27.11.2014 20:30 0,4 C 71 % 1012,1 hPa 0,0 l/m 11,9 km/h (2 Bft) O-NO 69 0 min 0,000 mm 0,0 UV-I 0 W/m -4,2 C -4,5 C 15,8 km/h (3 Bft) 0,00 %
27.11.2014 20:45 0,4 C 71 % 1012,2 hPa 0,0 l/m 20,5 km/h (4 Bft) O-SO 108 0 min 0,000 mm 0,0 UV-I 0 W/m -4,2 C -9,3 C 28,1 km/h (4 Bft) 0,00 %
27.11.2014 21:00 0,5 C 71 % 1012,5 hPa 0,0 l/m 4,3 km/h (1 Bft) O-SO 120 0 min 0,000 mm 0,0 UV-I 0 W/m -4,1 C 0,5 C 7,9 km/h (2 Bft) 0,00 %
27.11.2014 21:15 0,5 C 71 % 1012,3 hPa 0,0 l/m 19,8 km/h (3 Bft) O 97 0 min 0,000 mm 0,0 UV-I 0 W/m -4,1 C -8,9 C 28,1 km/h (4 Bft) 0,00 %
27.11.2014 21:30 0,5 C 71 % 1012,2 hPa 0,0 l/m 17,3 km/h (3 Bft) O-NO 75 0 min 0,000 mm 0,0 UV-I 0 W/m -4,1 C -7,7 C 28,1 km/h (4 Bft) 0,00 %
27.11.2014 21:45 0,5 C 72 % 1012,5 hPa 0,0 l/m 1,8 km/h (1 Bft) S 175 0 min 0,000 mm 0,0 UV-I 0 W/m -3,9 C 0,5 C 4,0 km/h (1 Bft) 0,00 %
27.11.2014 22:00 0,5 C 72 % 1012,4 hPa 0,0 l/m 6,5 km/h (2 Bft) N 11 0 min 0,000 mm 0,0 UV-I 0 W/m -3,9 C 0,4 C 11,9 km/h (2 Bft) 0,00 %
27.11.2014 22:15 0,4 C 72 % 1012,4 hPa 0,0 l/m 13,3 km/h (3 Bft) O-SO 108 0 min 0,000 mm 0,0 UV-I 0 W/m -4,0 C -5,4 C 15,8 km/h (3 Bft) 0,00 %
27.11.2014 22:30 0,4 C 73 % 1012,6 hPa 0,0 l/m 9,4 km/h (2 Bft) O-NO 75 0 min 0,000 mm 0,0 UV-I 0 W/m -3,9 C -2,5 C 11,9 km/h (2 Bft) 0,00 %
27.11.2014 22:45 0,4 C 73 % 1012,7 hPa 0,0 l/m 11,9 km/h (2 Bft) O-SO 103 0 min 0,000 mm 0,0 UV-I 0 W/m -3,9 C -4,5 C 15,8 km/h (3 Bft) 0,00 %
27.11.2014 23:00 0,4 C 73 % 1012,5 hPa 0,0 l/m 9,7 km/h (2 Bft) O-SO 106 0 min 0,000 mm 0,0 UV-I 0 W/m -3,9 C -2,8 C 15,8 km/h (3 Bft) 0,00 %
27.11.2014 23:15 0,4 C 73 % 1012,5 hPa 0,0 l/m 14,4 km/h (3 Bft) O 96 0 min 0,000 mm 0,0 UV-I 0 W/m -3,9 C -6,1 C 19,8 km/h (3 Bft) 0,00 %
27.11.2014 23:30 0,4 C 74 % 1012,6 hPa 0,0 l/m 4,0 km/h (1 Bft) O-NO 71 0 min 0,000 mm 0,0 UV-I 0 W/m -3,7 C 0,4 C 7,9 km/h (2 Bft) 0,00 %
27.11.2014 23:45 0,4 C 72 % 1012,9 hPa 0,0 l/m 11,5 km/h (2 Bft) O 93 0 min 0,000 mm 0,0 UV-I 0 W/m -4,0 C -4,2 C 15,8 km/h (3 Bft) 0,00 %
_ Min-Zeit 07:00 15:30 14:30 - 01:00 - - - - - - 19:45 19:15 01:00 00:00
Minimum _ 0,1 C 67 % 1010,3 hPa - 0,0 km/h (0 Bft) - - - - - - -4,4 C -9,4 C 0,0 km/h (0 Bft) 0,00 %
_ Max-Zeit 14:00 07:00 00:00 00:00 17:15 - - 07:45 00:00 11:15 13:30 11:15 14:30 17:15 00:00
Maximum _ 2,8 C 77 % 1015,4 hPa 0,0 l/m 22,3 km/h
O (4 Bft)
- - 15 min 0,000 mm 2,0 UV-I 423 W/m -1,7 C 2,7 C 32,0 km/h
O (5 Bft)
0,00 %
Durchschnitt _ 1,1 C 72 % 1012,5 hPa #0,0 l/m 8,4 km/h (2 Bft) O - #3:15 h #0,000 mm 1,1 UV-I 155 W/m -3,4 C -1,4 C 12,6 km/h (3 Bft) 0,00 %